Home > Weather > Nipigon > Past weeks

Flag for Canada Weather for the Past 2 Weeks in Nipigon, Ontario, Canada

Now
11 °F

Cold.


Feels Like: -3 °F
Forecast: 8 / 15 °F
Wind: 10 mph from Northwest

Location: Katatota Island

Current Time: Feb 6, 2016 at 6:53:33 AM

Latest Report: Feb 6, 2016 at 5:00 AM


Visibility: N/A

Pressure: 30.01 "Hg

Humidity: 93%

Dew point: 9 °F

Location of NipigonLocation

Historic Weather in Nipigon — Graph

°F

Nipigon Temperature Yesterday

Maximum temperature yesterday: 15 °F (at 5:00 PM)
Minimum temperature yesterday: 0 °F (at 9:00 AM)
Average temperature yesterday: 8 °F

High & Low Weather Summary for the Past Weeks

 TemperatureHumidityPressure
High37 °F (Jan 30, 2:00 PM)100% (Jan 23, 1:00 PM)30.51 "Hg (Jan 23, 1:00 PM)
Low-14 °F (Jan 29, 7:00 AM)64% (Jan 22, 1:00 PM)29.16 "Hg (Jan 30, 1:00 PM)
Average13 °F88%29.92 "Hg
* Reported Jan 22 5:00 AM — Feb 6 5:00 AM, Nipigon, Weather by CustomWeather, © 2016

Note: Actual official high and low records may vary slightly from our data, if they occured in-between our weather recording intervals... More about our weather records

Advertising

Nipigon Weather History for the Previous 24 Hours

 ConditionsComfort  
Time TempWeatherWind HumidityBarometerVisibility
5:00 AM
Sat, Feb 6
11 °FCold.10 mph93%30.01 "HgN/A
4:00 AM10 °FFrigid.12 mph94%30.01 "HgN/A
3:00 AM12 °FCold.13 mph92%30.00 "HgN/A
2:00 AM15 °FCold.16 mph90%29.99 "HgN/A
1:00 AM13 °FCold.5 mph95%30.00 "HgN/A
12:00 AM12 °FCold.3 mph95%30.02 "HgN/A
11:00 PM
Fri, Feb 5
11 °FCold.1 mph100%30.05 "HgN/A
10:00 PM12 °FCold.3 mph95%30.07 "HgN/A
9:00 PM13 °FCold.5 mph94%30.10 "HgN/A
8:00 PM13 °FCold.5 mph94%30.13 "HgN/A
7:00 PM12 °FCold.5 mph93%30.15 "HgN/A
6:00 PM12 °FCold.1 mph90%30.17 "HgN/A
5:00 PM15 °FCold.2 mph82%30.19 "HgN/A
4:00 PM14 °FCold.8 mph85%30.20 "HgN/A
3:00 PM13 °FCold.3 mph76%30.21 "HgN/A
2:00 PM14 °FCold.7 mph73%30.22 "HgN/A
1:00 PM12 °FCold.6 mph73%30.24 "HgN/A
12:00 PM10 °FCold.5 mph76%30.27 "HgN/A
11:00 AM8 °FFrigid.5 mph81%30.27 "HgN/A
10:00 AM6 °FFrigid.3 mph86%30.27 "HgN/A
9:00 AM0 °FFrigid.3 mph88%30.28 "HgN/A
8:00 AM2 °FFrigid.3 mph89%30.27 "HgN/A
7:00 AM0 °FFrigid.7 mph90%30.25 "HgN/A
6:00 AM0 °FFrigid.5 mph89%30.24 "HgN/A
Weather by CustomWeather, © 2016

See weather overviewHow to use our weather pages